SJX032 RCTP-KSEA

Flight info

Callsign SJX032
Flight time N/A
Altitude 33000
Route RCTP/05R ROBIN R583 BORDO Z29 GAKIA Y293 YULIA Y57 POROT OTR11 AVBET/N0492F350 OTR11 LEPKI DCT 37N160E 37N165E 38N170E 41N180E/N0490F370 45N170W 47N160W 47N150W 47N140W/N0478F390 47N130W DCT WIDEN DCT LATAY HAWKZ8
Aircraft A359/H-SDE2E3GHIJ3J4J5LM1ORWXY/LB1D1

Departure

Time 2026-05-04 08:57
Airport Taiwan Taoyuan International Airport (RCTP)

Arrival

Time N/A
Airport Seattle–Tacoma International Airport (KSEA)
Time Latitude Longitude Altitude Speed Heading
2026-05-04 08:27 25.07647 121.23493 105 ft 0 kts 319°
2026-05-04 08:46 25.07567 121.23592 105 ft 4 kts 230°
2026-05-04 08:46 25.07584 121.23613 104 ft 4 kts 229°
2026-05-04 08:46 25.07595 121.23627 105 ft 0 kts 229°
2026-05-04 08:50 25.07372 121.23342 105 ft 14 kts 229°
2026-05-04 08:50 25.07309 121.23262 107 ft 14 kts 229°
2026-05-04 08:51 25.07242 121.23189 105 ft 13 kts 206°
2026-05-04 08:51 25.07166 121.23220 105 ft 12 kts 141°
2026-05-04 08:51 25.07097 121.23272 104 ft 12 kts 168°
2026-05-04 08:51 25.07030 121.23234 106 ft 11 kts 228°
2026-05-04 08:52 25.06978 121.23168 104 ft 11 kts 229°
2026-05-04 08:52 25.06925 121.23101 104 ft 12 kts 229°
2026-05-04 08:52 25.06871 121.23033 106 ft 12 kts 229°
2026-05-04 08:52 25.06815 121.22962 105 ft 12 kts 229°
2026-05-04 08:53 25.06758 121.22889 105 ft 13 kts 229°
2026-05-04 08:54 25.06307 121.22318 106 ft 18 kts 229°
2026-05-04 08:55 25.06217 121.22250 106 ft 15 kts 169°
2026-05-04 08:55 25.06134 121.22321 106 ft 16 kts 137°
2026-05-04 08:55 25.06135 121.22421 104 ft 13 kts 49°
2026-05-04 08:55 25.06203 121.22506 103 ft 20 kts 49°
2026-05-04 08:57 25.10472 121.27973 1809 ft 187 kts 54°
2026-05-04 09:01 25.27544 121.48052 7581 ft 308 kts 59°
2026-05-04 09:01 25.28303 121.50278 8030 ft 313 kts 78°
2026-05-04 09:01 25.28761 121.52621 8602 ft 313 kts 79°
2026-05-04 09:01 25.29202 121.54970 9182 ft 313 kts 79°
2026-05-04 09:02 25.29653 121.57346 9656 ft 319 kts 79°
2026-05-04 09:02 25.30121 121.59772 10152 ft 327 kts 78°
2026-05-04 09:02 25.30611 121.62281 10533 ft 340 kts 79°
2026-05-04 09:02 25.31110 121.64891 10812 ft 353 kts 78°
2026-05-04 09:03 25.31638 121.67595 11098 ft 366 kts 78°
2026-05-04 09:03 25.32187 121.70390 11292 ft 378 kts 78°
2026-05-04 09:03 25.32752 121.73275 11472 ft 390 kts 78°
2026-05-04 09:03 25.33331 121.76249 11672 ft 402 kts 78°
2026-05-04 09:04 25.33924 121.79305 11871 ft 412 kts 78°
2026-05-04 09:04 25.34529 121.82423 12114 ft 419 kts 78°
2026-05-04 09:04 25.35147 121.85607 12468 ft 424 kts 78°
2026-05-04 09:04 25.35768 121.88811 12804 ft 428 kts 78°
2026-05-04 09:05 25.36393 121.92043 13200 ft 431 kts 78°
2026-05-04 09:05 25.37022 121.95295 13568 ft 435 kts 78°
2026-05-04 09:05 25.37656 121.98578 13926 ft 438 kts 78°
2026-05-04 09:05 25.38294 122.01886 14251 ft 441 kts 78°
2026-05-04 09:06 25.38935 122.05214 14573 ft 444 kts 78°
2026-05-04 09:07 25.44371 122.28813 16815 ft 462 kts 69°
2026-05-04 09:08 25.45482 122.32108 17100 ft 464 kts 68°
2026-05-04 09:08 25.46616 122.35455 17385 ft 467 kts 68°
2026-05-04 09:08 25.47744 122.38824 17813 ft 466 kts 69°
2026-05-04 09:08 25.48860 122.42203 18110 ft 469 kts 69°
2026-05-04 09:09 25.49971 122.45607 18348 ft 472 kts 69°
2026-05-04 09:09 25.51081 122.49036 18616 ft 474 kts 69°
2026-05-04 09:09 25.52217 122.52472 18871 ft 476 kts 68°
2026-05-04 09:09 25.53386 122.55891 19135 ft 478 kts 68°
2026-05-04 09:10 25.54586 122.59350 19279 ft 484 kts 68°
2026-05-04 09:10 25.55799 122.62844 19542 ft 485 kts 68°
2026-05-04 09:10 25.57002 122.66324 19888 ft 485 kts 68°
2026-05-04 09:10 25.58208 122.69830 20169 ft 487 kts 68°
2026-05-04 09:11 25.59412 122.73348 20426 ft 489 kts 68°